Showing default

ICEYE-X41, 62700

Orbit data source: Space-Track

ICEYE-X41, 62700 is a payload satellite owned by ICEYE US (US) in SSO that was launched on Tue, 14 Jan 2025 UTC via an FALCON 9 launch vehicle from the Air Force Western Test Range (AFWTR). Payload-class satellites include a variety of spacecraft equipped with specific instruments for various scientific and technological missions. These include communications satellites like Starlink; space stations such as the ISS; scientific satellites like the Hubble; Earth observation satellites from companies like Planet Labs, Umbra, and HawkEye 360; GPS; miniature CubeSats for education and research; and military/defense satellites.

Loading next visibility...
Identifier
62700, 2025-009CV
Orbit
SSO
Country
Flag of USUS
Related business
Manufacturer
ICEYE
Mission
Operational Commercial Radar Imaging
Bus & Motor
ICEYE, Unknown motor
Mass
80 kg wet, 80 kg dry
Launch date (UTC)
2025-01-14 (1 year ago)
Launch vehicle
FALCON 9
Launch site
Air Force Western Test Range (AFWTR)
Object type
Payload
Rocket body
Debris
Shape & HBR
Box + 1 Pan, 0.6 m
Radar Cross Section
0.776 m², Medium (>0.1 m² and < 1m²)

Expand to show TLE details & history
Last TLE update: 8 hours ago

TLE from 8 hours ago
0 ICEYE-X41
1 62700U 25009CV  26151.15582184  .00004840  00000-0  42954-3 0  9993
2 62700  97.7066 230.9308 0002967  94.0790 266.0771 14.96628216 74869
Epoch: 2026-05-31T03:44Z
TLE epoch observation values (Epoch: 2026-05-31T03:44:23.006Z)
Latitude
-0.00003°
Longitude
-73.8266°
Altitude
580.515 km
Speed
7.57 km/s
True Right ascension
15h 23m 43s
True Declination
0° 00' 00"
Sunlit
Object was in full shadow at epoch
Visualization orbit readout
Latitude
Unknown
Longitude
Unknown
Altitude
Unknown
Speed
Unknown
Apparent Right ascension
Unknown
Apparent Declination
Unknown
Sunlit
N/A
Visualization observer readout
Local Sidereal Time
21:29:40
Azimuth
Unknown
Elevation
Unknown
Doppler factor
Unknown
Orbital elements
Apogee altitude
576.396 km
Perigee altitude
572.271 km
Semi-major axis
6,952.471 km
Eccentricity
0.0003
Inclination
97.7066°
RAAN
230.9308°
Arg. of periapsis
94.079°
True anomaly
266.04318°
Mean anomaly
266.0771°
Eccentric anomaly
266.06014°
Mean motion
3.74399 °/min
Orbital period
96.15 mins
BSTAR
0.00042954
Loading maneuver chart data...
Computing Atmospheric mass density...
Loading historical data...
Loading historical data...
Loading historical data...
Loading historical data...
Loading historical data...
Loading historical data...
Loading historical data...

Documentation

Showing up to 5 results
|